User: anonymous   Login
Location: Unspecified
(0.0000°N, 0.0000°E)
Time: 23:12:58
(UTC+00:00)
Language:

Tiros 1 - Orbit

View from above orbital plane
View from above orbital plane
View from above satellite
View from above satellite

Ground track
Ground track

The orbit data is extracted from the following two-line orbital elements,

1 00029U 60002B   18051.13477621 -.00000108  00000-0  14919-4 0  9993
2 00029  48.3811 351.7131 0024230 204.9240 155.0503 14.74227954 93489
Epoch (UTC): 20 February 2018 03:14:04
Eccentricity: 0.0024230
inclination: 48.3811°
perigee height: 630 km
apogee height: 664 km
right ascension of ascending node: 351.7131°
argument of perigee: 204.9240°
revolutions per day: 14.74227954
mean anomaly at epoch: 155.0503°
orbit number at epoch: 9348

The dashed part of the orbit path shows where the satellite is in the earth's shadow,  

DLR